VE2TST Weather Reports


time (UTC)temp
C
wind
direction
speed
KPH
gust
KPH
rain 1hr
cm
rain 24hr
cm
rain mn
cm
humidity
%
barometer
mb
20260507015332 7 0.0 0.0 0.00 0.00 0.00 99
20260507014311 7 0.0 0.0 0.00 0.00 0.00 99
20260507013312 7 3.2 3.2 0.00 0.00 0.00 99
20260507012313 7 3.2 3.2 0.00 0.00 0.00 99
20260507011311 7 0.0 0.0 0.00 0.00 0.00 99
20260507010311 7 0.0 0.0 0.00 0.00 0.00 99
20260507005313 7 3.2 3.2 0.00 0.00 0.00 99
20260507004313 7 0.0 0.0 0.00 0.00 0.00 99
20260507003311 7 0.0 0.0 0.00 0.00 0.00 99
20260507002310 7 0.0 0.0 0.00 0.00 0.00 99
20260507001312 7 0.0 0.0 0.00 0.00 0.00 99
20260507000314 7 0.0 0.0 0.00 0.00 0.00 99
20260506235309 8 1.6 1.6 0.00 0.00 0.00 99
20260506234312 8 3.2 3.2 0.00 0.00 0.00 99
20260506233311 8 0.0 0.0 0.00 0.00 0.00 99
20260506232311 8 1.6 1.6 0.00 0.00 0.00 99
20260506231313 8 1.6 1.6 0.00 0.00 0.00 99
20260506230331 8 1.6 1.6 0.00 0.00 0.00 99
20260506225311 9 1.6 1.6 0.00 0.00 0.00 99
20260506224311 9 3.2 3.2 0.00 0.00 0.00 99
20260506222813 10 0.0 0.0 0.00 0.00 0.00 99
20260506221811 10 1.6 1.6 0.00 0.00 0.00 99
20260506220833 10 4.8 4.8 0.00 0.00 0.00 99
20260506215813 10 1.6 1.6 0.00 0.00 0.00 99
20260506214811 10 0.0 0.0 0.00 0.00 0.00 99
20260506213831 10 1.6 1.6 0.00 0.00 0.00 99
20260506212812 10 1.6 1.6 0.00 0.00 0.00 99
20260506211830 10 1.6 1.6 0.00 0.00 0.00 99
20260506210830 8 1.6 1.6 0.00 0.00 0.00 99
20260506205812 9 0.0 0.0 0.00 0.00 0.00 99
20260506204813 8 0.0 0.0 0.00 0.00 0.00 99
20260506203811 9 0.0 0.0 0.00 0.00 0.00 99
20260506202813 9 0.0 0.0 0.00 0.00 0.00 99
20260506201811 10 0.0 0.0 0.00 0.00 0.00 99
20260506200832 10 0.0 0.0 0.00 0.00 0.00 99
20260506195812 10 0.0 0.0 0.00 0.00 0.00 99
20260506194812 10 1.6 1.6 0.00 0.00 0.00 99
20260506193811 9 0.0 0.0 0.00 0.00 0.00 99
20260506192811 9 0.0 0.0 0.00 0.00 0.00 99
20260506191811 9 0.0 0.0 0.00 0.00 0.00 99
20260506190811 9 0.0 0.0 0.00 0.00 0.00 99
20260506185831 10 3.2 3.2 0.00 0.00 0.00 99
20260506184811 10 0.0 0.0 0.00 0.00 0.00 99
20260506183831 10 0.0 0.0 0.00 0.00 0.00 99
20260506182830 10 1.6 1.6 0.00 0.00 0.00 99
20260506181831 10 0.0 0.0 0.00 0.00 0.00 99
20260506180811 10 0.0 0.0 0.00 0.00 0.00 99
20260506175811 10 0.0 0.0 0.00 0.00 0.00 99
20260506174813 10 0.0 0.0 0.00 0.00 0.00 99
20260506173832 10 0.0 0.0 0.00 0.00 0.00 99
20260506172810 8 0.0 0.0 0.00 0.00 0.00 99
20260506171812 8 0.0 0.0 0.00 0.00 0.00 99
20260506170810 8 0.0 0.0 0.00 0.00 0.00 99
20260506170310 7 0.0 0.0 0.00 0.00 0.00 99
20260506164812 8 0.0 0.0 0.00 0.00 0.00 99
20260506163810 8 0.0 0.0 0.00 0.00 0.00 99
20260506162831 8 0.0 0.0 0.00 0.00 0.00 99
20260506161812 8 0.0 0.0 0.00 0.00 0.00 99
20260506160810 7 0.0 0.0 0.00 0.00 0.00 99
20260506155812 7 0.0 0.0 0.00 0.00 0.00 99
20260506154830 7 0.0 0.0 0.00 0.00 0.00 99
20260506154312 6 0.0 0.0 0.00 0.00 0.00 99
20260506152812 6 0.0 0.0 0.00 0.00 0.00 99
20260506151830 6 0.0 0.0 0.00 0.00 0.00 99
20260506150811 6 0.0 0.0 0.00 0.00 0.00 99
20260506145811 6 0.0 0.0 0.00 0.00 0.00 99
20260506144813 6 0.0 0.0 0.00 0.00 0.00 99
20260506143811 6 0.0 0.0 0.00 0.00 0.00 99
20260506141311 6 3.2 8.0 0.00 0.00 0.00 99